User: anonymous   Login
Location: Warwick
(41.7000°N, 71.4170°W)
Time: 15:23:29
(UTC-05:00)
Language:

Hubble Space Telescope - Orbit

View from above orbital plane
View from above orbital plane
View from above satellite
View from above satellite

Ground track
Ground track

The orbit data is extracted from the following two-line orbital elements,

1 20580U 90037B   18020.43993022  .00000491  00000-0  19169-4 0  9991
2 20580  28.4708  11.7463 0002625 356.7372 136.7243 15.08965836323135
Epoch (UTC): 20 January 2018 10:33:29
Eccentricity: 0.0002625
inclination: 28.4708°
perigee height: 537 km
apogee height: 541 km
right ascension of ascending node: 11.7463°
argument of perigee: 356.7372°
revolutions per day: 15.08965836
mean anomaly at epoch: 136.7243°
orbit number at epoch: 32313

The dashed part of the orbit path shows where the satellite is in the earth's shadow,  

DLR